Temp
34 32 26 25 26 27 27 27 27 30 30 27 29 32 31 32 31 31 30 29 30 29 29 29 28 28 27 27 27 27 27 26 26 26 26 26 27 27 27 27 27 27 27 27
33 31 34 29 28 29 28 27 27 26 30 26 27 27 26 29 33 32 31 31 30 30 28 29 27 27 27 26 27 27 26 26 26 26 26 26 27 26 27 27 27 27 27 27
33 36 34 33 32 28 29 28 28 28 25 24 25 24 25 28 29 33 33 32 31 30 29 28 28 27 26 27 27 27 26 26 26 26 26 26 26 26 26 25 26 26 26 26
34 37 39 37 36 35 32 33 34 29 28 24 25 24 23 26 27 26 33 33 31 30 30 29 29 28 27 27 27 27 27 26 26 26 26 26 26 26 25 24 24 24 24 25
33 35 36 37 36 37 36 37 34 33 31 26 25 23 24 24 28 26 32 33 32 31 30 29 29 29 28 27 27 27 27 26 26 26 26 26 26 25 24 24 24 24 25 24
34 36 37 36 37 36 37 37 35 34 30 29 25 25 26 24 27 26 29 31 32 31 31 30 30 29 28 27 27 26 25 25 25 26 26 25 25 24 24 24 24 23 24 24
33 34 36 37 36 35 34 33 28 29 29 30 27 26 25 29 28 30 29 30 28 32 31 30 30 30 29 28 26 25 24 25 24 23 23 24 25 25 24 23 23 22 22 22
30 30 34 36 34 33 33 32 27 30 29 32 29 30 30 31 30 28 28 30 31 28 32 31 26 24 24 23 23 23 23 22 21 21 21 21 22 22 23 22 22 22 22 22
30 31 36 37 36 34 33 31 32 31 32 31 31 29 27 28 27 24 26 26 26 25 25 22 21 20 19 19 20 21 19 20 20 20 21 21 21 21 21 21 21 21 21 22
32 30 33 36 36 36 33 34 30 28 30 30 31 30 28 29 27 27 24 24 22 22 22 22 20 20 19 19 19 18 19 19 19 19 20 20 20 20 20 21 20 20 20 20
33 30 31 34 34 33 32 31 32 30 29 28 28 28 31 26 24 23 22 22 21 20 20 20 20 19 19 18 18 18 18 18 18 18 19 19 19 20 20 20 19 19 19 19
33 30 29 32 33 35 33 32 31 26 28 29 28 25 25 23 22 21 20 19 19 19 18 16 17 16 16 17 17 17 17 18 18 19 19 19 19 19 18 18 18 18 17 16
34 29 27 28 30 33 34 32 31 31 28 28 28 24 23 21 20 19 19 18 18 17 16 15 15 15 15 16 16 16 16 16 17 17 17 17 16 16 17 16 16 16 16 16
31 31 28 26 30 32 32 34 34 31 28 28 26 23 22 23 20 20 18 17 17 17 16 16 15 15 15 15 16 16 16 17 17 17 17 17 17 17 17 17 16 16 16 15
31 29 32 30 32 32 33 33 33 30 30 29 27 26 24 23 21 19 18 18 17 17 17 16 16 16 16 16 17 17 18 18 18 18 17 17 17 17 16 16 16 15 15 15
30 27 32 29 30 31 31 30 32 31 32 28 25 23 23 22 21 19 20 20 19 18 19 18 18 17 17 18 18 18 18 18 18 18 17 17 17 16 16 16 15 15 15 15
26 26 27 27 28 29 25 26 30 30 30 29 26 23 22 21 21 20 20 20 19 19 20 19 19 19 20 19 19 19 18 18 18 18 17 17 17 16 16 16 16 16 15 15
25 24 24 22 26 26 24 27 28 28 28 28 26 24 23 22 21 21 21 20 20 21 20 19 20 20 20 19 19 19 18 18 18 18 18 18 17 17 16 16 16 16 15 15
25 25 26 22 21 22 26 24 26 25 25 27 25 24 23 22 21 22 23 22 20 19 19 20 20 20 19 19 18 18 18 18 18 18 18 18 17 17 16 16 16 16 15 15
25 24 24 23 23 19 19 24 28 27 22 27 26 25 24 23 20 20 22 20 19 20 20 20 19 19 19 18 18 18 18 18 18 18 18 17 17 17 17 17 16 16 16 15
24 24 25 25 24 22 24 24 27 24 22 26 24 22 21 19 18 18 19 19 20 20 20 20 20 19 19 19 18 18 18 18 18 18 18 17 17 17 17 17 17 17 17 16
24 23 20 22 24 23 24 25 24 23 26 25 23 22 20 20 19 19 19 18 20 20 20 20 20 20 19 19 18 18 18 18 18 18 18 17 17 17 17 17 17 17 17 17
22 21 18 20 21 22 23 25 25 25 24 25 23 21 21 20 20 20 18 17 19 20 20 20 20 20 20 19 19 19 18 18 18 18 18 17 17 17 18 18 18 17 17 17
23 21 21 21 23 22 23 25 25 23 23 24 23 23 22 21 20 19 18 18 19 20 20 20 20 20 19 19 19 18 18 18 18 17 17 17 17 17 18 18 18 18 18 18
22 23 25 24 25 22 24 24 24 24 24 25 25 25 25 20 19 18 17 18 20 20 20 20 20 19 19 19 18 18 18 18 17 17 17 17 17 17 17 18 19 19 20 19
24 25 23 22 23 22 23 24 24 24 24 24 25 25 24 23 18 19 17 20 20 20 20 20 19 19 18 18 18 18 18 18 17 17 17 17 17 17 18 18 18 19 19 20
Height
752 777 802 800 794 790 798 808 807 790 785 810 804 797 797 789 790 792 794 796 799 802 806 809 814 821 825 829 832 836 840 843 845 849 851 850 852 853 853 854 855 857 858 859
764 778 753 767 775 778 795 804 803 810 795 817 813 817 809 796 784 785 789 793 797 801 804 808 814 819 823 827 831 834 837 841 845 848 852 854 854 853 854 854 854 856 855 855
763 750 745 756 768 784 787 795 794 800 812 823 820 834 813 792 791 780 781 785 791 796 802 806 812 817 821 824 828 832 837 840 843 846 849 851 851 854 855 855 856 854 852 853
751 729 735 744 754 753 779 753 766 799 807 847 816 855 830 803 797 801 778 781 788 790 796 802 807 813 815 820 825 828 832 835 839 843 846 848 850 851 855 855 854 852 851 852
760 747 747 750 749 739 755 734 758 768 783 811 826 839 821 809 796 795 780 774 775 779 785 794 801 807 812 817 820 824 826 830 833 838 842 844 846 847 851 854 854 852 852 851
746 724 731 739 734 736 734 742 751 752 782 816 808 813 817 808 792 790 776 771 770 777 782 790 796 801 808 815 818 825 834 836 838 831 837 842 845 845 849 851 851 852 852 853
756 748 729 724 747 740 748 769 819 817 815 807 787 814 808 772 776 774 773 773 777 776 778 785 791 795 803 810 816 824 829 838 840 833 838 843 843 844 848 849 850 851 852 855
789 792 744 724 741 758 759 769 817 825 827 801 786 797 781 754 763 771 771 767 768 787 775 783 791 799 805 810 813 820 829 836 836 839 841 842 846 847 849 852 852 853 853 855
780 775 726 721 718 735 758 778 754 784 774 797 783 782 774 771 774 781 779 784 792 800 786 795 803 804 812 816 821 829 832 836 839 842 844 844 847 850 851 851 851 852 852 852
751 782 740 724 712 723 744 738 785 790 811 813 793 788 796 782 785 785 795 801 808 808 800 805 809 814 818 823 829 835 836 837 841 844 844 846 849 850 850 849 851 852 851 852
734 760 758 737 746 753 754 764 758 768 785 813 818 804 758 780 786 798 809 815 812 808 810 814 818 818 823 827 832 837 841 839 843 845 846 847 848 850 850 851 851 850 850 850
725 749 773 756 733 722 732 750 756 800 798 783 794 813 782 790 793 791 806 812 818 818 821 827 828 830 832 834 837 841 845 843 845 846 847 847 847 845 848 852 848 848 851 851
724 756 789 783 758 732 741 741 744 750 766 788 801 816 791 805 818 812 812 819 825 828 831 834 836 838 840 840 841 843 844 845 844 844 846 847 848 848 843 849 843 847 848 847
724 746 771 803 775 749 755 742 737 752 786 782 789 803 806 805 816 816 824 826 829 833 837 839 840 841 841 842 843 842 843 844 843 844 845 845 843 843 842 845 846 843 844 847
736 764 750 756 750 747 746 746 749 763 757 776 783 787 788 793 803 812 818 826 832 837 839 840 840 841 840 841 842 842 841 842 843 843 843 841 843 842 843 848 847 846 848 846
735 770 750 767 757 753 763 761 747 753 751 768 782 803 786 796 802 813 817 822 825 830 834 836 839 841 840 839 839 840 841 842 842 843 843 843 844 845 847 848 847 847 844 843
762 768 775 788 769 767 798 789 769 759 757 764 787 796 795 804 806 810 815 818 821 824 829 835 835 835 837 839 840 840 842 843 843 844 845 845 846 846 846 844 843 843 843 841
768 777 779 805 779 811 799 772 769 772 769 769 778 788 792 798 801 805 808 811 816 820 823 829 834 836 837 838 840 842 842 843 843 844 844 844 844 845 844 844 843 842 840 838
755 772 779 809 819 812 792 789 789 794 799 780 788 790 795 797 802 807 803 806 812 817 822 827 833 836 837 839 841 842 843 843 844 843 844 844 844 843 842 841 839 838 836 833
758 762 780 795 811 846 823 789 774 788 821 787 784 788 793 798 820 818 806 809 816 820 824 828 832 836 838 839 841 843 844 843 843 842 842 842 841 840 838 836 835 833 831 829
781 777 786 791 804 810 788 783 773 811 819 785 790 792 797 810 811 811 810 814 818 823 827 829 832 834 836 838 840 841 842 841 840 840 839 838 837 835 833 831 829 827 825 824
790 798 816 802 801 817 781 780 798 793 781 785 788 792 799 802 806 809 810 813 817 822 825 828 831 833 835 835 836 837 838 837 836 836 835 834 832 830 828 825 822 821 819 815
802 797 815 808 803 784 781 781 776 776 780 784 788 789 792 798 802 806 810 813 817 820 824 827 830 831 832 833 834 834 834 834 834 833 831 830 828 824 822 819 815 813 810 806
780 782 792 794 784 782 781 776 776 779 782 782 785 791 795 797 801 806 809 813 816 819 823 825 827 829 830 831 831 832 832 832 830 829 827 825 822 819 816 812 809 806 803 800
779 778 776 780 774 779 779 777 778 780 782 786 786 788 790 795 800 804 808 811 815 818 821 823 825 826 827 828 828 829 829 828 826 825 823 820 817 815 812 808 805 801 798 795
769 771 783 789 773 776 780 776 778 782 785 786 787 789 791 793 799 803 807 811 815 817 819 821 823 824 825 825 825 825 825 823 823 821 818 815 812 809 805 802 798 795 791 786
Wind_Speed
8 7 10 17 22 20 18 11 7 2 6 6 10 9 13 14 12 14 13 9 14 12 21 26 28 25 24 26 23 23 19 24 20 15 12 10 8 3 2 6 11 7 2 5
4 11 12 23 23 19 19 10 4 12 7 6 12 3 10 10 16 16 15 12 15 13 9 18 27 26 29 28 25 24 17 27 20 14 13 5 3 5 3 3 5 11 8 5
8 9 25 21 22 22 19 23 12 14 16 5 11 3 10 5 2 13 16 15 17 16 13 14 25 27 28 31 26 26 21 22 19 15 11 8 5 1 3 5 3 7 8 9
9 9 0 6 5 14 9 26 19 23 12 7 4 4 5 8 6 7 17 16 16 16 14 12 21 27 30 32 33 29 25 22 18 18 8 6 5 1 4 6 3 5 2 6
10 11 9 8 8 5 6 9 22 26 12 8 4 5 7 6 10 7 13 18 21 22 20 19 21 24 31 31 34 32 30 25 20 19 12 4 5 3 2 5 7 7 5 3
11 12 3 3 9 7 10 4 9 8 6 3 13 6 5 7 13 8 3 7 17 21 19 20 29 27 30 31 31 28 23 23 17 16 13 10 5 2 3 2 2 3 5 7
9 13 13 4 2 8 9 4 4 4 2 8 14 3 7 17 11 15 7 3 5 11 19 17 16 24 28 27 26 30 29 24 16 3 6 8 8 9 6 5 6 8 10 9
5 8 14 11 9 8 7 6 5 4 3 7 19 8 5 16 11 7 5 7 4 14 13 16 15 23 25 25 29 33 29 13 8 6 10 11 10 10 8 9 10 11 10 11
5 11 15 14 7 10 7 6 10 6 5 3 3 6 8 5 11 9 7 4 2 7 21 19 24 26 28 30 25 25 25 24 21 19 17 16 13 11 9 10 12 13 9 6
8 6 10 10 7 6 8 6 4 4 3 4 4 6 9 14 11 11 10 10 11 11 19 18 23 25 28 32 31 26 24 21 15 16 16 16 14 12 11 10 9 9 10 11
7 5 12 5 4 6 3 4 4 1 3 1 2 3 14 19 20 20 15 12 11 14 15 14 20 25 29 31 28 23 20 21 20 16 16 12 10 8 7 8 11 14 15 16
9 6 3 5 8 5 8 7 4 5 9 4 5 2 16 17 15 18 15 14 12 12 12 13 18 23 25 27 25 21 19 19 17 14 11 9 5 5 9 12 12 15 15 18
1 1 3 10 10 6 5 9 8 3 1 5 3 5 13 18 8 11 15 10 9 9 9 6 12 14 18 20 21 19 15 13 12 11 8 7 7 10 12 11 15 15 19 21
7 1 6 6 4 5 4 5 6 2 1 3 2 9 13 18 16 14 13 11 9 7 7 6 5 9 15 15 14 13 9 8 9 6 6 7 8 10 12 12 14 17 18 18
3 1 4 7 9 8 7 7 5 9 6 4 10 9 13 14 16 14 13 12 10 8 5 4 4 7 11 11 10 10 9 9 8 6 4 9 8 10 10 9 11 14 16 15
4 5 3 9 10 10 11 24 6 6 6 14 21 15 20 16 17 14 13 14 14 12 10 9 9 9 11 10 8 10 8 6 4 4 5 5 5 6 7 7 9 10 15 17
7 3 1 3 3 7 9 12 14 6 13 12 8 10 16 14 15 14 13 12 12 12 11 9 11 12 11 9 9 9 6 4 3 3 3 1 2 5 8 12 14 16 17 16
4 4 4 2 3 4 6 9 12 18 19 15 18 14 14 14 11 10 13 13 12 12 11 9 13 12 11 9 7 6 5 3 2 3 4 5 6 9 11 13 16 17 20 18
4 1 3 3 4 3 2 6 5 8 10 12 11 14 13 10 9 5 7 10 9 9 17 18 15 10 8 9 5 3 4 3 5 7 8 7 9 13 16 18 20 22 22 23
6 4 5 2 5 2 9 13 2 5 4 7 7 9 18 14 5 1 11 13 12 20 20 17 14 11 8 8 8 7 7 10 9 12 9 10 13 15 18 22 23 24 25 24
3 3 2 2 4 2 4 6 8 4 6 6 7 9 9 4 5 5 10 10 19 18 16 15 15 16 15 13 10 10 10 11 13 12 12 14 17 19 21 24 25 25 23 25
4 3 3 4 5 3 3 3 4 6 6 6 8 10 13 14 11 9 9 11 19 17 11 9 7 8 12 15 14 14 14 15 15 12 14 17 19 23 25 27 29 29 28 29
4 4 5 6 3 4 1 1 4 5 7 6 8 7 10 12 11 11 9 10 16 19 15 12 12 12 11 10 13 14 13 9 12 16 18 19 22 25 27 30 32 29 30 29
2 5 2 4 3 5 4 3 7 9 8 8 9 9 7 8 7 9 8 8 14 16 15 13 10 11 11 9 6 5 8 13 14 14 17 20 23 27 29 30 27 23 23 26
5 7 4 0 3 7 7 8 8 8 8 7 6 6 5 9 9 8 7 10 14 13 11 9 3 2 4 6 8 10 11 12 14 17 18 21 23 23 25 26 19 22 23 25
3 5 4 4 6 6 6 7 9 7 6 5 4 4 5 7 9 11 9 16 13 10 8 5 5 7 10 12 11 10 12 16 16 18 22 24 25 24 27 29 33 34 32 30
Wind_Direction
206 174 167 181 172 189 197 214 203 150 268 62 26 118 162 186 179 171 167 168 156 156 167 166 168 162 164 168 171 178 191 175 170 183 198 217 254 260 11 50 148 189 210 242
215 232 205 175 187 169 184 183 167 47 350 87 108 323 300 281 193 176 172 172 158 158 148 150 160 161 171 174 178 185 184 171 172 178 197 222 120 198 113 317 271 253 255 257
253 228 157 166 190 170 194 194 188 147 96 72 98 325 280 270 58 197 174 173 156 162 159 157 160 169 173 176 180 186 164 171 179 186 213 210 193 231 157 125 47 313 238 287
290 301 311 319 247 201 235 204 174 150 137 164 222 213 289 278 289 331 173 169 164 166 162 163 162 165 175 177 180 179 183 182 191 194 216 217 211 172 83 69 83 45 276 352
264 292 328 178 245 351 273 9 158 191 158 130 224 94 246 282 246 270 199 179 171 171 167 174 174 173 176 175 185 191 189 192 193 204 209 207 211 107 348 44 53 72 350 288
281 294 261 14 335 334 322 17 324 308 134 201 194 147 256 204 211 231 155 172 174 173 173 174 176 172 175 177 183 179 178 185 186 192 216 229 209 121 121 87 5 50 34 357
292 283 287 146 248 305 299 349 314 321 281 240 155 212 231 217 204 216 168 220 122 193 177 173 176 169 174 177 165 162 164 198 190 155 218 203 215 242 195 133 102 62 69 70
260 283 243 231 174 197 231 192 171 263 310 314 150 152 225 199 183 96 134 165 275 340 178 179 99 94 101 116 138 159 172 146 127 123 106 117 113 91 87 83 67 65 57 52
266 288 298 307 178 156 250 272 235 245 258 301 120 23 18 40 129 114 157 211 323 26 83 88 88 90 92 96 110 118 117 114 111 104 102 93 88 86 77 64 65 68 56 36
239 256 280 304 96 187 171 238 354 342 288 262 159 170 144 141 134 158 117 112 100 97 83 90 93 95 94 96 101 97 107 107 105 96 102 93 83 74 73 73 50 30 17 357
242 181 273 14 272 181 319 273 282 149 162 234 347 307 153 142 127 114 111 117 102 78 79 80 77 85 92 94 98 100 101 100 98 101 99 102 90 65 44 28 18 11 2 356
220 179 193 260 299 242 188 243 227 131 280 213 175 65 57 93 115 114 104 87 70 73 67 66 77 82 95 102 108 110 114 111 112 111 112 106 99 66 20 9 17 9 9 4
303 45 41 334 333 340 176 234 214 244 121 248 159 138 112 95 111 108 107 99 91 84 77 70 84 95 105 115 122 124 129 129 131 129 119 102 85 58 61 23 29 18 9 7
22 27 139 199 249 256 294 316 268 275 316 276 139 131 140 135 130 117 117 113 107 107 104 110 102 110 122 128 135 140 137 127 107 82 80 79 50 24 25 18 7 14 7 358
49 310 337 304 316 349 342 91 350 13 260 84 171 144 153 125 125 122 121 121 119 122 138 154 164 159 154 145 140 124 112 102 89 99 59 46 40 27 21 8 9 5 356 354
335 288 304 296 16 328 29 10 12 26 18 90 90 78 112 108 109 124 138 148 148 157 165 171 178 183 171 166 159 126 104 96 86 68 51 29 17 11 354 349 346 340 350 353
350 10 289 135 348 352 32 346 356 35 45 89 101 139 126 127 133 147 156 160 156 159 161 186 185 151 124 106 122 128 127 139 158 178 180 216 298 303 310 323 327 320 330 330
3 21 356 147 46 69 248 341 18 57 35 43 115 135 138 144 148 158 170 164 169 168 153 140 134 141 158 156 131 121 155 165 224 253 237 266 298 301 299 296 293 292 294 308
89 3 115 98 35 20 18 343 7 31 28 19 122 142 146 141 141 177 170 134 138 126 130 138 149 152 150 148 164 199 254 250 266 278 282 272 274 276 278 282 291 295 294 293
159 129 96 69 109 94 244 261 87 34 4 20 38 121 152 149 116 107 115 110 108 125 134 135 148 163 183 194 191 216 240 256 256 270 269 287 287 288 287 288 289 294 291 285
28 356 99 67 114 357 247 293 261 114 203 117 77 81 95 97 146 163 108 114 137 146 158 173 184 191 198 192 210 228 247 263 267 272 285 284 289 291 291 293 290 287 286 284
40 47 17 347 40 108 252 10 97 188 131 132 117 118 115 124 134 137 134 131 133 133 134 151 179 216 201 207 213 222 241 263 271 273 288 294 295 292 293 292 290 287 286 279
65 146 187 169 207 227 28 29 125 134 112 89 90 130 137 145 159 157 147 139 143 155 169 188 207 223 229 223 233 238 253 277 291 292 294 298 300 296 298 297 296 286 282 278
76 155 162 140 193 202 203 133 77 73 61 73 71 100 145 185 147 141 134 141 155 168 181 196 218 240 244 241 247 270 295 294 296 299 304 302 299 300 301 302 297 283 273 270
208 167 151 177 151 155 197 139 124 96 79 60 62 77 53 100 143 138 144 153 162 172 187 203 213 299 289 284 277 277 281 290 299 305 302 296 296 300 304 307 297 289 297 291
217 208 142 199 162 117 128 111 124 134 158 168 175 143 63 128 148 143 149 158 161 158 167 193 235 258 266 266 269 273 283 287 289 286 285 283 289 303 303 301 297 299 291 292